Weather History for Moline, IL

Change the Weather History Date:

Monday, July 15, 2013

  Actual Average Record
Temperature  
Mean Temperature 81 °F 76 °F  
Max Temperature 91 °F 86 °F 106 °F (1936)
Min Temperature 71 °F 65 °F 48 °F (1967)
Degree Days  
Heating Degree Days 0 0  
Month to date heating degree days 0 0  
Since 1 June heating degree days 27 19  
Since 1 July heating degree days 0 0  
Cooling Degree Days 16 11  
Month to date cooling degree days 126 161  
Year to date cooling degree days 419 451  
Since 1 June cooling degree days 329 375  
Growing Degree Days 31 (Base 50)    
Moisture  
Dew Point 71 °F    
Average Humidity 73    
Maximum Humidity 90    
Minimum Humidity 56    
Precipitation  
Precipitation 0.00 in 0.14 in 1.70 in (1992)
Month to date precipitation 0.73 2.23  
Year to date precipitation 30.02 20.58  
Snow  
Snow 0.00 in 0.00 in - ()
Month to date snowfall 0.0 0.0  
Since 1 June snowfall 0.0 0.0  
Since 1 July snowfall 0.0 0.0  
Snow Depth 0.00 in    
Sea Level Pressure  
Sea Level Pressure 30.21 in    
Wind  
Wind Speed 6 mph (ESE)    
Max Wind Speed 15 mph    
Max Gust Speed 18 mph    
Visibility 10 miles    
Events      
T = Trace of Precipitation, MM = Missing Value Source: NWS Daily Summary

Daily Weather History Graph

Daily Weather History Graph

Search for Another Location

Airport:

Trip Planner

Search our weather history database for the weather conditions in past years. The results will help you decide how hot, cold, wet, or windy it might be!

Date:

Astronomy

Jul. 15, 2013 Rise Set
Actual Time 5:41 AM CDT 8:33 PM CDT
Civil Twilight 5:08 AM CDT 9:06 PM CDT
Nautical Twilight 4:27 AM CDT 9:48 PM CDT
Astronomical Twilight 3:39 AM CDT 10:35 PM CDT
Moon 1:07 PM CDT (7/15) No Moon Set
Length of Visible Light 15h 57m
Length of Day
14h 52m
Waxing Crescent, 45% of the Moon is Illuminated
Jul 15
Waxing Crescent
Jul 15
First Quarter
Jul 22
Full
Jul 29
Last Quarter
Aug 6
New

Hourly Weather History & Observations

Time (CDT) Temp. Heat Index Dew Point Humidity Pressure Visibility Wind Dir Wind Speed Gust Speed Precip Events Conditions
12:52 AM 73.0 °F - 69.1 °F 87% 30.18 in 10.0 mi Calm Calm - N/A   Clear
1:52 AM 72.0 °F - 68.0 °F 87% 30.19 in 10.0 mi ESE 3.5 mph - N/A   Clear
2:52 AM 71.1 °F - 68.0 °F 90% 30.19 in 10.0 mi ESE 5.8 mph - N/A   Clear
3:52 AM 71.1 °F - 68.0 °F 90% 30.19 in 9.0 mi East 6.9 mph - N/A   Clear
4:52 AM 72.0 °F - 68.0 °F 87% 30.20 in 9.0 mi Calm Calm - N/A   Clear
5:52 AM 72.0 °F - 68.0 °F 87% 30.21 in 8.0 mi NE 3.5 mph - N/A   Clear
6:52 AM 73.0 °F - 70.0 °F 90% 30.22 in 6.0 mi East 4.6 mph - N/A   Clear
7:52 AM 75.9 °F - 70.0 °F 82% 30.24 in 8.0 mi East 4.6 mph - N/A   Partly Cloudy
8:52 AM 80.1 °F 83.8 °F 72.0 °F 76% 30.24 in 10.0 mi East 4.6 mph - N/A   Mostly Cloudy
9:52 AM 82.0 °F 86.7 °F 72.0 °F 71% 30.25 in 10.0 mi East 5.8 mph - N/A   Mostly Cloudy
10:52 AM 84.9 °F 91.4 °F 73.0 °F 67% 30.24 in 10.0 mi East 6.9 mph - N/A   Clear
11:52 AM 87.1 °F 92.8 °F 71.1 °F 59% 30.24 in 10.0 mi SE 8.1 mph - N/A   Partly Cloudy
12:52 PM 89.1 °F 96.0 °F 72.0 °F 57% 30.23 in 10.0 mi ESE 9.2 mph - N/A   Scattered Clouds
1:52 PM 89.1 °F 96.0 °F 72.0 °F 57% 30.22 in 10.0 mi Variable 5.8 mph - N/A   Scattered Clouds
2:52 PM 89.1 °F 95.0 °F 71.1 °F 55% 30.21 in 10.0 mi SSE 6.9 mph - N/A   Partly Cloudy
3:52 PM 90.0 °F 96.4 °F 71.1 °F 54% 30.19 in 10.0 mi ESE 8.1 mph - N/A   Partly Cloudy
4:52 PM 89.1 °F 95.0 °F 71.1 °F 55% 30.18 in 10.0 mi ESE 5.8 mph - N/A   Partly Cloudy
5:52 PM 88.0 °F 94.7 °F 72.0 °F 59% 30.17 in 10.0 mi ESE 10.4 mph - N/A   Scattered Clouds
6:52 PM 87.1 °F 95.4 °F 73.9 °F 65% 30.18 in 10.0 mi ESE 9.2 mph - N/A   Clear
7:52 PM 84.0 °F 91.2 °F 73.9 °F 72% 30.18 in 10.0 mi ESE 6.9 mph - N/A   Clear
8:52 PM 80.1 °F 84.2 °F 73.0 °F 79% 30.18 in 10.0 mi SE 4.6 mph - N/A   Clear
9:52 PM 78.1 °F - 72.0 °F 81% 30.20 in 10.0 mi ESE 3.5 mph - N/A   Clear
10:52 PM 79.0 °F - 72.0 °F 79% 30.22 in 10.0 mi Calm Calm - N/A   Clear
11:52 PM 77.0 °F - 73.0 °F 88% 30.23 in 10.0 mi SSE 4.6 mph - N/A   Overcast